Temp
19 20 20 21 22 22 22 22 21 21 21 21 21 21 20 20 20 20 20 20 19 19 19 19 19 19 19 18 19 19 18 18
18 18 18 18 19 19 20 21 21 21 20 20 20 21 20 20 20 20 20 20 19 19 19 19 19 19 19 18 19 19 18 18
16 16 17 18 18 18 18 19 20 21 20 19 18 19 20 20 20 20 20 19 19 19 19 19 19 19 18 18 19 19 19 19
16 17 17 17 17 17 17 18 18 18 20 20 19 18 19 19 20 19 19 19 19 19 19 19 19 19 18 18 19 19 19 19
15 16 17 17 17 17 17 17 17 18 18 19 20 20 19 18 18 19 19 18 18 18 18 18 19 19 19 18 19 19 19 19
13 15 16 17 17 16 16 16 17 17 17 18 18 19 19 19 18 18 18 19 18 18 18 18 19 19 19 18 18 19 19 19
12 14 16 16 17 17 17 16 15 15 16 17 17 17 19 19 19 19 18 18 18 18 18 18 18 19 19 18 18 19 19 19
11 13 13 13 14 15 15 16 16 15 15 15 16 16 17 18 19 19 18 18 18 18 19 18 18 19 19 19 18 18 19 19
8 11 13 13 12 12 13 14 14 14 14 14 12 14 14 15 17 18 19 19 19 18 18 18 18 18 18 19 19 18 18 19
7 9 10 11 12 12 12 12 13 13 12 13 11 13 12 13 13 16 17 18 19 19 18 17 17 17 18 19 19 19 19 18
7 9 9 9 10 11 11 11 12 11 11 10 9 11 11 10 12 14 14 16 17 17 17 17 16 16 17 17 18 19 18 18
8 8 8 8 9 10 10 11 11 10 10 8 8 8 7 9 10 10 12 12 14 16 16 16 16 16 16 16 17 19 18 18
6 5 4 4 3 3 4 7 8 9 8 8 7 5 6 6 6 8 9 10 11 13 16 16 16 16 16 16 16 17 18 17
5 5 4 3 2 1 1 2 4 5 6 6 5 4 4 4 5 6 7 8 9 11 13 15 16 16 16 17 16 16 15 16
4 4 4 3 3 2 2 1 1 1 2 4 4 3 3 3 4 5 6 6 8 10 12 13 15 16 16 18 15 17 15 15
4 3 3 3 2 1 0 -0 1 0 1 1 1 1 2 2 3 4 5 5 5 7 9 11 14 15 16 15 17 18 15 14
4 4 3 2 2 0 -0 -1 -0 0 0 0 0 1 1 1 2 3 3 4 5 6 7 9 11 14 16 16 16 15 15 15
4 3 2 1 0 0 -1 -1 -1 -0 1 0 -0 -0 0 1 1 2 3 4 4 5 6 7 9 12 15 16 16 14 14 15
3 2 2 1 1 0 -0 -1 -2 -1 -0 -0 -1 -0 -1 -0 0 1 2 3 4 5 5 7 8 11 14 15 15 14 14 14
3 2 2 1 1 0 -0 -1 -2 -2 -2 -1 -1 -1 -1 -1 -0 0 1 3 4 4 5 6 9 11 13 15 15 15 14 14
Height
789 790 791 792 790 789 790 790 791 791 790 789 790 791 792 793 794 795 795 795 795 796 796 796 796 796 796 798 799 799 799 799
791 791 791 792 792 793 793 792 791 792 792 791 790 790 791 793 793 794 794 794 794 794 795 796 796 796 796 796 797 799 798 798
793 792 792 792 793 794 794 795 794 792 792 793 793 792 790 791 792 792 793 794 794 793 793 794 795 795 795 796 796 797 797 798
797 795 794 794 794 794 794 795 794 794 793 791 791 792 792 792 791 791 792 791 791 792 792 792 792 793 793 794 794 794 795 795
800 798 797 796 796 795 794 794 794 794 794 794 791 790 791 791 791 790 790 791 791 792 792 791 790 790 790 790 792 793 793 793
803 800 799 798 797 796 796 793 793 792 792 792 792 790 788 788 790 791 789 787 787 788 789 789 789 789 789 788 788 789 791 791
805 803 800 799 798 797 796 794 794 793 791 790 789 788 787 786 786 787 788 788 785 784 785 785 785 786 787 787 786 786 787 788
809 804 802 801 800 798 797 795 794 792 790 788 787 786 784 783 781 782 782 782 781 779 779 782 783 782 783 784 784 785 784 785
810 807 805 802 800 799 797 795 793 790 788 786 785 784 780 778 778 777 774 774 775 777 777 776 777 778 778 779 780 780 782 780
812 808 805 804 803 800 797 795 792 790 787 785 783 782 781 778 774 772 771 769 769 770 769 771 770 770 771 772 774 774 774 776
813 808 807 806 804 802 799 795 792 789 787 784 782 779 777 775 773 769 767 764 763 762 763 761 761 762 762 764 768 769 768 769
814 812 811 809 806 802 799 795 791 788 785 783 781 778 775 772 769 767 764 760 759 755 756 754 753 752 756 756 757 761 764 763
818 816 813 809 806 804 800 795 790 787 784 782 778 776 774 771 768 764 762 759 756 755 751 748 747 745 750 751 749 752 755 757
822 818 814 811 807 806 802 797 792 788 784 780 777 774 772 770 767 763 760 755 752 748 747 744 736 738 739 742 744 745 746 748
824 820 813 809 807 803 799 797 793 785 781 778 775 773 769 767 765 762 757 754 748 746 742 739 734 729 727 729 737 734 736 737
823 819 815 812 809 805 803 800 795 791 787 783 777 773 769 763 760 758 755 750 744 740 737 733 730 723 719 718 719 722 729 734
821 818 816 812 808 807 805 801 797 790 786 781 777 773 768 763 759 753 749 746 742 736 731 726 723 718 712 691 706 712 713 721
820 819 817 814 812 809 806 801 796 791 786 782 778 773 767 760 755 750 744 739 735 729 723 718 713 709 703 695 695 692 704 708
822 822 818 814 811 809 805 799 797 793 788 781 776 768 763 757 752 746 739 734 728 720 712 705 702 696 693 687 686 687 692 701
824 821 818 814 811 807 802 798 793 788 784 779 773 767 761 755 749 742 735 729 720 713 704 695 689 683 682 680 678 677 686 692
Wind_Speed
3 4 7 8 8 8 9 9 9 9 9 11 12 11 11 11 12 12 12 12 11 9 9 10 11 12 11 11 11 10 9 11
14 9 10 11 11 10 9 9 10 10 10 11 13 13 13 13 14 14 14 13 13 12 11 12 13 13 12 12 12 11 10 12
31 25 17 10 10 12 12 12 12 11 11 12 13 15 16 16 17 16 16 16 15 14 14 14 14 14 14 13 13 12 11 13
37 36 32 23 14 14 13 15 15 15 14 15 16 16 17 18 18 18 19 18 18 17 16 16 17 17 17 16 16 15 14 15
36 34 32 30 27 21 19 17 16 19 19 19 19 19 20 20 21 21 21 20 20 19 19 19 20 20 20 20 19 18 17 17
34 33 31 29 28 28 24 21 19 17 19 22 24 24 23 24 25 25 25 25 25 24 24 23 23 22 22 22 22 22 19 20
34 33 31 30 28 26 25 24 21 19 16 19 24 29 30 28 29 28 29 29 29 28 27 27 26 25 25 25 25 25 24 23
31 34 33 31 30 28 26 24 24 22 22 21 18 24 29 36 33 34 33 33 34 33 31 31 30 28 28 27 28 26 27 27
30 33 32 33 34 32 29 28 27 26 24 25 23 22 25 24 31 36 38 38 36 35 34 33 33 33 32 31 32 29 29 30
31 34 35 34 33 32 32 32 30 28 29 27 25 29 27 29 25 22 33 37 39 38 38 38 37 37 37 37 37 37 35 32
34 36 35 35 35 33 31 32 32 33 33 31 34 31 30 30 30 30 27 24 33 37 37 37 33 33 36 36 38 41 41 36
36 35 33 33 32 32 32 33 34 35 34 35 36 34 34 33 32 30 30 31 27 31 33 34 35 34 29 28 37 41 41 40
36 34 32 32 31 28 27 31 31 35 36 36 36 37 38 34 29 31 30 26 28 31 28 33 31 30 22 22 26 37 42 41
32 33 32 30 29 22 20 26 22 25 33 35 36 39 37 29 33 28 28 30 29 28 25 26 30 29 21 12 5 13 27 37
29 31 33 32 33 32 30 21 22 23 35 36 39 38 34 34 28 26 29 29 29 29 29 28 29 28 35 17 3 9 4 18
28 31 32 30 30 30 28 21 21 22 22 26 32 34 34 35 29 27 28 32 32 33 33 32 28 30 24 37 31 11 4 3
29 31 31 31 30 29 25 24 23 24 26 28 27 29 30 30 29 31 30 30 33 34 35 31 32 33 35 18 29 24 19 3
27 28 30 28 25 26 25 23 23 25 26 27 28 30 29 29 33 34 32 31 32 35 37 35 34 36 39 31 22 7 6 10
22 23 28 27 27 27 29 28 22 21 23 25 31 30 29 30 36 34 35 34 37 37 38 37 35 34 34 29 28 24 27 31
18 21 25 25 27 30 30 30 28 22 26 27 29 31 32 32 35 38 36 36 38 35 34 38 37 36 34 33 32 31 41 37
Wind_Direction
5 295 285 275 255 245 240 237 240 234 223 211 206 204 205 208 211 212 211 208 207 210 198 189 193 201 205 203 199 196 210 211
26 6 336 313 304 293 273 258 253 251 244 235 221 214 215 218 218 220 221 219 218 215 208 201 205 211 212 207 207 210 231 214
43 36 28 350 333 318 300 292 278 262 255 250 245 231 223 223 226 225 225 227 227 224 216 209 210 215 216 213 212 211 217 209
45 45 39 33 20 7 329 307 297 287 269 254 248 248 244 239 235 233 231 230 231 230 226 218 213 217 215 212 216 212 214 206
40 40 40 37 34 22 16 7 338 297 287 277 264 256 253 250 246 237 234 235 235 234 231 225 220 219 218 216 213 217 219 213
38 35 35 34 32 29 20 15 1 347 318 289 281 271 262 255 255 252 243 235 234 235 235 233 229 226 225 223 217 216 218 215
39 37 32 27 22 19 20 15 4 0 348 334 313 285 276 268 260 256 254 248 241 238 238 237 233 230 229 230 225 221 221 221
39 36 33 29 27 22 15 7 4 2 353 343 329 331 298 281 271 263 257 252 251 243 240 242 240 235 233 233 233 228 225 228
41 35 33 28 21 19 18 12 3 357 354 356 349 332 342 328 281 273 265 257 253 251 248 242 244 241 237 234 233 232 233 233
37 32 27 22 19 15 12 11 8 3 356 350 342 343 338 329 337 309 278 266 259 252 247 245 244 243 241 236 236 237 235 236
36 30 24 17 12 9 8 6 6 3 358 356 348 346 342 338 327 324 317 295 258 251 244 237 235 238 238 238 238 240 240 236
31 27 22 17 11 6 3 0 0 358 357 352 351 350 344 339 334 326 323 319 309 253 245 239 236 232 231 231 238 237 240 240
26 22 17 14 12 7 0 356 355 352 352 349 350 347 346 346 338 333 328 320 310 295 275 243 241 230 219 233 236 236 236 237
24 20 17 12 11 0 357 350 344 349 347 346 345 342 345 344 336 331 325 321 316 309 298 286 238 230 219 225 229 235 233 233
23 20 18 13 6 2 359 355 343 345 347 342 339 339 339 335 333 327 325 321 315 307 299 293 285 242 222 217 192 237 180 218
23 19 16 13 10 5 359 346 340 335 331 330 329 333 330 333 330 323 320 319 313 306 297 295 288 277 231 227 230 220 193 186
18 15 13 11 9 8 354 346 339 335 333 330 331 329 326 327 324 321 316 315 310 304 298 289 280 280 264 208 215 217 216 199
17 14 11 8 6 4 0 350 340 334 334 332 330 326 325 323 322 317 313 310 307 301 298 284 279 273 272 240 220 211 202 242
12 8 7 7 6 2 0 359 343 332 327 329 329 326 325 322 323 315 314 309 308 303 298 288 283 269 270 238 222 228 236 231
3 2 360 2 2 1 358 357 352 337 336 329 328 325 319 318 319 315 312 311 313 312 302 295 282 270 260 246 223 220 226 227